Location: Albany
(35.0170°S, 117.8920°E)
Time: 17:35:41
(UTC+08:00)

Explorer 11/Cluster Stage 4 - Pass Details

Date: 28 January 2021
Orbit: 467 x 1257 km, 28.8° (Epoch: 02 March)

Event Time Altitude Azimuth Distance (km) Brightness Sun altitude
Rises 09:48:07 0° 277° (W) 3,603 9.6 52.1°
Reaches altitude 10° 09:51:09 10° 283° (WNW) 2,515 9.0 52.7°
Maximum altitude 09:56:39 40° 351° (N) 1,072 7.9 53.8°
Drops below altitude 10° 10:01:06 10° 60° (ENE) 2,024 9.5 54.7°
Sets 10:03:19 0° 68° (ENE) 2,826 10.0 55.1°
